Regional Weather Roundup
Issued by NWS

Home | Current Version | Previous Version | Text Only | Print | Product List | Glossary Off
Versions: 1 2 3 4 5 6 7 8 9 10 11 12 13 14 15 16 17 18 19 20 21 22 23 24 25 26 27

000
ASUS45 KSLC 190410
RWRUT

UTAH REGIONAL WEATHER ROUNDUP
NATIONAL WEATHER SERVICE SALT LAKE CITY UT
900 PM MST THU JAN 18 2018

UTZ001>011-023>025-190500-

NORTHERN UTAH

CITY           SKY/WX    TMP DP  RH WIND       PRES   REMARKS
BRIGHAM CITY   MOCLDY    38  32  80 NW3       29.93F
HILL AFB       CLOUDY    42  27  53 SE6       29.93F
LOGAN          MOCLDY    36  29  75 CALM      29.92F
OGDEN          MOCLDY    40  28  62 S7        29.93F
SALT LAKE CITY CLOUDY    52  29  41 SE10      29.93F
TOOELE VALLEY  CLOUDY    32  30  93 E3        29.94F
WENDOVER       MOCLDY    34  27  75 CALM      29.93F
HEBER CITY       N/A     34  25  69 CALM      29.99S
WEST JORDAN    MOCLDY    50  29  43 SE12G18   29.96S

$$

UTZ011>015-024>027-190500-

CENTRAL/NORTHEAST UTAH

CITY           SKY/WX    TMP DP  RH WIND       PRES   REMARKS
PROVO AIRPORT  MOCLDY    42  28  57 SE6       29.99F
MOAB/CANYONLAN CLOUDY    31  22  69 CALM      30.15F
DELTA          CLOUDY    48  28  46 S21G26    29.99F
PRICE          CLOUDY    30  22  72 N3        30.14S
ROOSEVELT      CLOUDY    27  18  69 W3        30.14F
VERNAL         MOCLDY    28  16  60 NW6       30.12F WCI  22

$$

UTZ013>016-019>022-027-190500-

SOUTHERN UTAH

CITY           SKY/WX    TMP DP  RH WIND       PRES   REMARKS
BRYCE CANYON   CLOUDY    27  25  92 SW5       30.18F WCI  22
CEDAR CITY     MOCLDY    45  26  47 SW8       30.08S
MILFORD        CLOUDY    45  28  51 SW21      30.05S
ST GEORGE      PTCLDY    49  35  58 CALM      30.08F
HANKSVILLE     CLOUDY    32  14  47 CALM      30.18F
BLANDING         N/A     30  18  62 NE6       30.27S WCI  24

$$

REGIONAL REPORTS     COLORADO/ARIZONA

CITY           SKY/WX    TMP DP  RH WIND       PRES   REMARKS
CRAIG, CO      MOCLDY    24  15  68 SE5       30.11F WCI  18
GRAND JUNCTION CLOUDY    30  19  63 E5        30.16F WCI  25
RIFLE, CO      CLOUDY    28  22  78 CALM      30.18F
MONTROSE, CO   CLOUDY    28  17  63 SE7       30.21R WCI  21
CORTEZ, CO     MOCLDY    26  18  71 NE3       30.22R
COLORADO CITY    N/A     37  30  75 SE6       30.16R WCI  33
PAGE, AZ       MOCLDY    42  25  50 CALM      30.15F
GRAND CANYON   MOCLDY    27  17  66 CALM      30.22S
KINGMAN, AZ    CLEAR     48  29  47 S5        30.09F
FLAGSTAFF, AZ  MOCLDY    32  18  56 CALM      30.22F

$$

REGIONAL REPORTS    NEVADA/IDAHO/WYOMING

CITY           SKY/WX    TMP DP  RH WIND       PRES   REMARKS
LAS VEGAS, NV  MOCLDY    56  40  55 W3        30.03F
ELY, NY        MOCLDY    44  26  49 S13       30.01F
ELKO, NV       CLOUDY    52  21  29 S26G40    29.82F
POCATELLO, ID  CLOUDY    52  30  43 S33G39    29.76F
BURLEY, ID     CLOUDY    51  31  46 SW26G38   29.74F
FORT BRIDGER,    N/A     39  23  53 SW8       30.01F WCI  33
EVANSTON, WY   PTCLDY    40  24  53 SW6       29.98F
ROCK SPRINGS,  MOCLDY    36  18  48 S12       29.97F WCI  28

$$




USA.gov is the U.S. government's official web portal to all federal, state and local government web resources and services.